Starlink 6368

operational
NORAD ID: 57234 Int'l Des: 2023-094 Owner: SPXS Country: US Constellation: starlink
LEOCIRCULAR

About Starlink 6368

Description loading...

Live Position

Loading 3D Globe...

Upcoming Passes

Altitude History

Altitude vs Time

uPlot chart will show altitude changes over time

Two-Line Element Set

1 57234U 23094S 25258.71318449 -.00000361 00000-0 -11620-4 0 9994
2 57234 43.0031 260.6960 0001159 272.9338 87.1372 15.02531919120808
Epoch: Sep 15, 2025 • Age: 15 hours

Current Status

Altitude 563.7 km
Velocity 7.58 km/s
Sub-Earth Point -21.71°S, 19.46°W
Launch Date Jul 7, 2023
Age 2.1 years
Type internet

Technical Details

Classification Payload
Mass 305.00 kg
Dry Mass 290.00 kg
Total Mass 305.00 kg
Length 0.20 m
Diameter 2.80 m
Span 9.00 m
Shape Box + pan
Manufacturer SPXS
Bus Type Starlink
Phase Status In Orbit
Owner/State SPXS/US

Large Constellations

Loading constellations...